Regional Weather Roundup
Issued by NWS Portland, ME

Home |  Current Version |  Previous Version |  Text Only |  Print | Product List |  Glossary On
Versions: 1 2 3 4 5 6 7 8 9 10 11 12 13 14 15 16 17 18 19 20 21 22 23 24 25 26 27 28 29 30 31 32 33 34 35 36 37 38 39 40 41 42 43 44 45 46 47 48 49 50
097
ASUS41 KGYX 251910
RWRGYX
WEATHER ROUNDUP FOR MAINE AND NEW HAMPSHIRE
NATIONAL WEATHER SERVICE GRAY ME
300 PM EDT THU JUL 25 2024

* THESE REPORTS ARE NOT UNDER NWS QUALITY CONTROL AND/OR DO NOT
 REPORT WEATHER SUCH AS PRECIPITATION AND FOG.

MEZ002-005-006-010-012-015-018-020-021-024-026-027-029-252000-
MAINE

CITY           SKY/WX    TMP DP  RH WIND       PRES   REMARKS
PORTLAND       LGT RAIN  72  71  97 S10       29.90F
SANFORD*       MOSUNNY   74  69  85 VRB7      29.93F
BAR HARBOR     LGT RAIN  66  65  96 S9        29.93F VSB 3/4
WISCASSET      PTSUNNY   76  69  79 S9        29.92F
ROCKLAND*      CLOUDY    68  68 100 SW7       29.91F FOG
FRYEBURG       SUNNY     81  66  60 S8        29.89F
LEWISTONAUBURN MOSUNNY   79  68  69 SW10G17   29.89
AUGUSTA        CLOUDY    75  69  81 VRB5      29.90F
WATERVILLE*    CLOUDY    73  69  87 VRB6      29.87F
BANGOR         CLOUDY    68  66  93 S9        29.91F FOG
GREENVILLE       N/A     66  65  96 MISG      29.90F
MILLINOCKET    CLOUDY    66  64  93 VRB3      29.91F
HOULTON        CLOUDY    66  62  87 S9        29.89F
PRESQUE ISLE   CLOUDY    68  65  90 S8        29.88F
FRENCHVILLE    CLOUDY    68  64  87 SE9       29.84F
CARIBOU        CLOUDY    69  64  84 S13G21    29.86F
$$

NHZ002-005-008-009-011-012-014-252000-
NEW HAMPSHIRE

CITY           SKY/WX    TMP DP  RH WIND       PRES   REMARKS
PORTSMOUTH*    CLOUDY    79  72  79 SW6       29.91S
ROCHESTER      SUNNY     81  73  76 S5        29.92F
NASHUA*        SUNNY     82  62  50 W8        29.94F
MANCHESTER     PTSUNNY   84  56  38 W17G25    29.91F
CONCORD        SUNNY     81  59  47 W14G22    29.93F
LACONIA*       MOSUNNY   78  62  57 W12G20    29.93F
BERLIN         SUNNY     76  63  64 MISG      29.91F
WHITEFIELD     PTSUNNY   77  60  55 W12G17    29.92F
JAFFREY        MOSUNNY   80  59  48 W10G18    29.99F
KEENE*         MOSUNNY   78  57  48 NW10G18   29.97F
LEBANON        PTSUNNY   82  59  45 W9        29.94F
MT WASHINGTON* FOG       50  50 100 W39G51      N/A  VSB 0
$$

VTZ005-007-008-252000-
VERMONT

CITY           SKY/WX    TMP DP  RH WIND       PRES   REMARKS
ST JOHNSBURY*    N/A     79  55  43 MISG      29.90F
MONTPELIER     PTSUNNY   75  55  49 W9G17     29.99F
BURLINGTON     PTSUNNY   82  54  37 W13G21    29.93F
$$

MAZ007-012-024-CTZ003-RIZ002-NYZ038-NYZ072-252000-
SOUTHERN NEW ENGLAND AND NY

CITY           SKY/WX    TMP DP  RH WIND       PRES   REMARKS
BOSTON         CLOUDY    82  68  62 SW14      29.93F
WORCESTER      SUNNY     78  61  55 W13G21    30.00F
NANTUCKET      CLOUDY    75  74  96 SW10      30.01S
PROVIDENCE     CLOUDY    82  72  71 SW10      29.96F
HARTFORD       PTSUNNY   87  63  44 W12       29.98S
ALBANY         MOSUNNY   82  55  39 W17G25    30.00F
NEW YORK CITY  PTSUNNY   83  61  47 W9        30.01F
$$

ANZ081-ANZ082-ANZ150-NHZ014-MEZ023>029-252000-
COASTAL MARINE OBSERVATIONS

STATION/POSITION TIME  TEMP    WIND        PRES    WAVE
                       AIR SEA DIR/SP/G            HT/PER
                 (UTC) (F)     (DEG/KT/KT) (MB)    (FT/S)
MOUNT DESERT ROC 1900   63     160/ 14/ 15 1013.3F
MATINICUS ROCK*  1800   64     180/ 13/ 13 1014.3F
ISLE OF SHOALS*  1800   68     160/ 13/ 14 1012.9F
JEFFREYS LEDGE*  1856      67                N/A     2/ 9
GEORGES BANK BUO 1850   68 66  240/  6/  8 1016.3F   6/ 8
$$

.............KEY..............
   WCI - WIND CHILL
   TC  - TEMPERATURE IN CELSIUS
   VSB - VISIBILITY IN MILES
   HX  - HEAT INDEX
   FAIR- INDICATES FEW OR NO CLOUDS BELOW 12,000 FT, WITH NO
         SIGNIFICANT WEATHER AND/OR OBSTRUCTIONS TO VISIBILITY.